KG1ZR Weather Reports


time (UTC)temp
F
wind
direction
speed
knots
gust
knots
rain 1hr
in
rain 24hr
in
rain mn
in
humidity
%
barometer
mb
20260508035509 43 342 0.9 6.1 0.00 0.09 0.07 58 1006.0
20260508034506 44 294 1.7 6.1 0.00 0.13 0.07 57 1006.1
20260508033501 44 307 1.7 7.8 0.00 0.13 0.07 57 1006.2
20260508032458 44 313 2.6 7.8 0.00 0.15 0.07 56 1006.3
20260508031958 45 321 2.6 7.8 0.00 0.16 0.07 55 1006.1
20260508030451 45 333 2.6 7.0 0.00 0.16 0.07 54 1005.9
20260508025447 45 323 1.7 7.0 0.00 0.16 0.07 54 1005.7
20260508024950 45 265 2.6 7.0 0.00 0.16 0.07 54 1005.5
20260508023951 45 302 1.7 6.1 0.00 0.17 0.07 54 1005.7
20260508022441 45 321 1.7 5.2 0.00 0.17 0.07 54 1005.6
20260508021938 45 312 1.7 7.8 0.00 0.18 0.07 54 1005.5
20260508020432 45 333 2.6 7.8 0.00 0.19 0.07 54 1005.5
20260508015429 45 316 2.6 10.4 0.00 0.19 0.07 54 1005.4
20260508014430 45 325 2.6 10.4 0.00 0.19 0.07 55 1005.4
20260508013429 44 300 0.9 3.5 0.00 0.20 0.07 57 1005.5
20260508012429 44 320 0.0 1.7 0.00 0.20 0.07 58 1005.4
20260508011429 45 15 0.0 0.0 0.00 0.20 0.07 57 1005.5
20260508010429 45 5 0.0 0.0 0.00 0.20 0.07 57 1005.5
20260508005429 46 5 0.0 0.0 0.00 0.20 0.07 57 1005.4
20260508004429 46 319 0.0 0.9 0.00 0.20 0.07 54 1005.2
20260508003909 47 319 0.0 0.9 0.00 0.20 0.07 54 1005.1
20260508002906 48 319 0.9 6.1 0.00 0.20 0.07 54 1004.8
20260508001906 49 319 0.9 6.1 0.00 0.20 0.07 53 1004.7
20260508000912 49 248 0.9 3.5 0.00 0.20 0.07 51 1004.5
20260507235428 50 299 1.7 3.5 0.00 0.20 0.07 50 1004.5
20260507234429 51 316 0.9 4.3 0.00 0.20 0.07 48 1004.4
20260507233430 52 338 0.9 3.5 0.00 0.20 0.07 48 1004.2
20260507232429 53 323 0.9 3.5 0.00 0.20 0.07 46 1004.1
20260507232355 54 294 1.7 8.7 0.00 0.20 0.07 44 1003.8
20260507230913 55 308 2.6 8.7 0.00 0.20 0.07 43 1003.5
20260507225915 56 294 3.5 14.8 0.00 0.20 0.07 41 1003.4
20260507224429 56 323 3.5 14.8 0.00 0.20 0.07 42 1003.2
20260507223430 57 296 3.5 13.9 0.00 0.20 0.07 43 1003.0
20260507222429 57 275 5.2 13.9 0.00 0.20 0.07 40 1003.0
20260507221429 57 277 3.5 12.2 0.00 0.21 0.07 42 1002.9
20260507220919 57 302 2.6 14.8 0.00 0.21 0.07 42 1002.9
20260507215429 58 335 4.3 14.8 0.00 0.22 0.07 42 1002.9
20260507214429 59 306 2.6 12.2 0.00 0.22 0.07 40 1002.8
20260507213429 59 325 3.5 10.4 0.00 0.23 0.07 41 1002.8
20260507212429 59 320 6.1 12.2 0.00 0.23 0.07 39 1002.7
20260507211429 60 299 4.3 12.2 0.00 0.24 0.07 39 1002.6
20260507210429 59 317 6.1 13.0 0.00 0.25 0.07 39 1002.4
20260507205429 59 274 4.3 11.3 0.00 0.26 0.07 41 1002.3
20260507204428 60 254 3.5 10.4 0.00 0.27 0.07 38 1002.0
20260507203429 60 293 3.5 7.8 0.00 0.28 0.07 43 1002.0
20260507202429 59 272 3.5 11.3 0.00 0.29 0.07 45 1002.0
20260507201429 60 250 4.3 11.3 0.00 0.29 0.07 40 1001.9
20260507200429 59 245 3.5 10.4 0.00 0.30 0.07 43 1001.8
20260507195430 60 248 5.2 12.2 0.00 0.31 0.07 41 1002.0
20260507194429 60 219 5.2 11.3 0.00 0.33 0.07 45 1002.1
20260507193911 60 288 4.3 12.2 0.00 0.34 0.07 46 1002.0
20260507192429 60 252 5.2 13.9 0.00 0.35 0.07 48 1002.0
20260507191428 60 275 5.2 13.9 0.00 0.36 0.07 55 1002.0
20260507190429 60 247 4.3 9.6 0.00 0.42 0.07 52 1002.1
20260507185429 58 20 3.5 8.7 0.00 0.44 0.07 57 1002.1
20260507184429 58 308 3.5 7.8 0.00 0.45 0.07 56 1002.2
20260507183431 59 355 3.5 10.4 0.00 0.46 0.07 56 1002.1
20260507182429 60 302 3.5 10.4 0.00 0.47 0.07 54 1002.1
20260507181429 61 326 3.5 11.3 0.00 0.47 0.07 58 1002.2
20260507180910 59 290 4.3 11.3 0.00 0.47 0.07 57 1002.4
20260507175429 60 342 4.3 11.3 0.00 0.47 0.07 53 1002.2
20260507174429 60 211 3.5 11.3 0.00 0.47 0.07 52 1002.4
20260507173429 60 296 3.5 9.6 0.00 0.47 0.07 55 1002.4
20260507172429 59 254 4.3 9.6 0.00 0.47 0.07 56 1002.5
20260507171912 58 254 4.3 8.7 0.00 0.47 0.07 57 1002.6
20260507170429 58 254 4.3 8.7 0.00 0.47 0.07 56 1002.8
20260507165429 58 288 3.5 10.4 0.00 0.47 0.07 60 1002.8
20260507164428 58 271 5.2 12.2 0.00 0.47 0.07 60 1002.9
20260507163428 58 246 3.5 8.7 0.00 0.47 0.07 58 1003.0
20260507162429 58 317 3.5 8.7 0.00 0.47 0.07 58 1003.1
20260507161429 58 259 2.6 7.0 0.00 0.47 0.07 59 1003.2
20260507160903 58 213 2.6 6.1 0.00 0.47 0.07 56 1003.2
20260507155429 58 187 3.5 7.8 0.00 0.47 0.07 55 1003.5
20260507154429 58 325 3.5 7.8 0.00 0.47 0.07 55 1003.5
20260507153428 58 333 2.6 7.0 0.00 0.47 0.07 64 1003.5
20260507152429 57 221 3.5 7.8 0.00 0.47 0.07 62 1003.6
20260507151429 57 180 2.6 6.1 0.00 0.47 0.07 65 1003.7
20260507150429 56 249 2.6 8.7 0.00 0.47 0.07 66 1003.8
20260507145428 56 207 2.6 5.2 0.00 0.47 0.07 65 1003.8
20260507144429 56 300 2.6 7.8 0.00 0.47 0.07 71 1003.9
20260507143429 57 180 2.6 7.8 0.00 0.47 0.07 66 1004.0
20260507142430 56 296 1.7 7.0 0.00 0.47 0.07 72 1004.2
20260507141429 55 238 2.6 7.0 0.00 0.47 0.07 69 1004.2
20260507140428 56 281 1.7 7.0 0.00 0.47 0.07 71 1004.3
20260507135905 55 292 1.7 7.0 0.00 0.47 0.07 72 1004.4
20260507134429 53 5 2.6 7.0 0.00 0.47 0.07 72 1004.5
20260507133915 53 304 1.7 6.1 0.00 0.47 0.07 75 1004.3
20260507132428 52 279 2.6 6.1 0.00 0.47 0.07 75 1004.5
20260507131910 52 244 2.6 6.1 0.00 0.47 0.07 74 1004.4
20260507130429 52 349 1.7 7.0 0.00 0.47 0.07 77 1004.5
20260507125429 51 302 2.6 7.0 0.00 0.47 0.07 78 1004.7
20260507124429 51 290 2.6 7.8 0.00 0.47 0.07 78 1004.8
20260507123914 50 325 3.5 7.8 0.00 0.47 0.07 78 1004.7
20260507122428 49 269 2.6 7.8 0.00 0.47 0.07 76 1004.8
20260507121429 49 274 1.7 4.3 0.00 0.47 0.07 73 1004.7
20260507120429 49 310 1.7 4.3 0.00 0.47 0.07 70 1004.7
20260507115429 48 315 1.7 4.3 0.00 0.47 0.07 68 1004.9
20260507114428 47 285 1.7 4.3 0.00 0.47 0.07 64 1005.1
20260507113429 47 215 0.0 3.5 0.00 0.47 0.07 60 1005.0
20260507112429 47 309 0.9 3.5 0.00 0.47 0.07 60 1004.9
20260507111429 46 194 0.9 3.5 0.00 0.47 0.07 60 1005.2
20260507110429 45 249 0.0 1.7 0.00 0.47 0.07 60 1005.2
20260507105429 45 217 0.9 2.6 0.00 0.47 0.07 60 1005.0
20260507104429 45 279 0.9 2.6 0.00 0.47 0.07 60 1004.9
20260507103429 44 225 0.0 2.6 0.00 0.47 0.07 61 1005.1
20260507102428 43 225 0.9 2.6 0.00 0.47 0.07 61 1005.1
20260507101429 43 325 0.0 0.0 0.00 0.47 0.07 61 1005.1
20260507100430 43 325 0.0 1.7 0.00 0.47 0.07 61 1004.5
20260507095429 43 325 0.9 1.7 0.00 0.47 0.07 61 1004.3
20260507094428 43 244 0.0 0.9 0.00 0.47 0.07 61 1004.3
20260507093429 44 244 0.0 1.7 0.00 0.47 0.07 61 1004.4
20260507092429 44 244 0.0 1.7 0.00 0.47 0.07 61 1004.5
20260507091428 44 244 0.0 1.7 0.01 0.47 0.07 61 1004.4
20260507090429 44 244 0.0 1.7 0.01 0.47 0.07 61 1004.7
20260507085429 44 244 0.0 1.7 0.01 0.47 0.07 61 1004.9
20260507084428 45 257 0.9 2.6 0.01 0.47 0.07 61 1004.8
20260507083429 45 281 0.9 2.6 0.01 0.47 0.07 61 1004.3
20260507083352 45 320 0.9 2.6 0.01 0.47 0.07 60 1004.1
20260507081429 46 302 0.0 2.6 0.00 0.46 0.06 60 1004.2
20260507080429 46 302 1.7 4.3 0.00 0.46 0.06 60 1004.1
20260507075427 47 316 1.7 4.3 0.00 0.46 0.06 60 1004.2
20260507074427 47 331 1.7 4.3 0.00 0.46 0.06 59 1004.3
20260507073426 48 284 0.9 2.6 0.00 0.46 0.06 59 1004.4
20260507072424 48 290 0.0 1.7 0.00 0.46 0.06 59 1004.2
20260507071423 48 290 0.0 1.7 0.00 0.46 0.06 59 1004.0
20260507070901 48 290 0.0 0.9 0.00 0.46 0.06 59 1004.0
20260507065420 48 290 0.0 1.7 0.00 0.46 0.06 59 1003.7
20260507064421 49 284 0.9 1.7 0.00 0.46 0.06 59 1003.6
20260507063421 49 284 0.0 1.7 0.00 0.46 0.06 59 1003.5
20260507062421 49 284 0.0 1.7 0.00 0.46 0.06 58 1003.4
20260507061421 49 284 0.0 2.6 0.00 0.46 0.06 58 1003.5
20260507060419 49 0 0.0 1.7 0.01 0.46 0.06 58 1003.2
20260507055418 49 0 0.0 1.7 0.01 0.46 0.06 58 1003.1
20260507054419 49 340 0.0 1.7 0.02 0.46 0.06 58 1003.0
20260507053419 50 311 0.0 3.5 0.04 0.46 0.06 58 1003.1
20260507052416 50 315 0.9 3.5 0.05 0.46 0.06 58 1003.4
20260507051417 51 331 0.9 4.3 0.05 0.46 0.05 58 1003.4
20260507050415 51 313 1.7 6.1 0.05 0.45 0.05 57 1003.4
20260507045856 51 279 2.6 8.7 0.07 0.45 0.05 57 1003.6
20260507044406 51 335 2.6 8.7 0.10 0.44 0.04 57 1003.3
20260507043407 52 302 3.5 8.7 0.08 0.42 0.02 57 1003.5
20260507042407 52 279 1.7 5.2 0.09 0.41 0.01 57 1003.2
20260507041407 52 254 1.7 5.2 0.10 0.41 0.01 57 1003.2
20260507040407 53 284 2.6 9.6 0.09 0.40 0.00 56 1003.2